Cincinnati, OH

3:23 PM EDT on September 22, 2019 (GMT -0400)
Cincinnati Municipal-Lunken

Weather History for KLUK - August, 2019

Change the Weather History Date:

Tuesday, August 20, 2019

  Actual Average Record
Temperature  
Mean Temperature 78 °F -  
Max Temperature 90 °F 84 °F 102 °F (1983)
Min Temperature 68 °F 64 °F 52 °F (1998)
Cooling Degree Days 14    
Growing Degree Days 28 (Base 50)    
Moisture  
Dew Point 71 °F    
Average Humidity 86    
Maximum Humidity 100    
Minimum Humidity 61    
Precipitation  
Precipitation 0.47 in - - ()
Sea Level Pressure  
Sea Level Pressure 30.03 in    
Wind  
Wind Speed 4 mph ()    
Max Wind Speed 17 mph    
Max Gust Speed 31 mph    
Visibility 7.0 miles    
Events Fog , Rain , Hail , Thunderstorm    
Averages and records for this station are not official NWS values.
T = Trace of Precipitation, MM = Missing Value Source: Averaged Metar Reports

Daily Weather History Graph

Daily Weather History Graph

Search for Another Location

Airport or City:

Astronomy

Aug. 20, 2019 Rise Set
Actual Time 6:55 AM EDT 8:26 PM EDT
Civil Twilight 6:27 AM EDT 8:54 PM EDT
Nautical Twilight 5:53 AM EDT 9:28 PM EDT
Astronomical Twilight 5:17 AM EDT 10:03 PM EDT
Moon 11:16 PM EDT (8/20) 11:30 AM EDT (8/20)
Length of Visible Light 14h 27m
Length of Day
13h 30m
Waning Gibbous, 78% of the Moon is Illuminated
Aug 20
Waning Gibbous
Aug 23
Last Quarter
Aug 30
New
Sep 5
First Quarter
Sep 14
Full

Hourly Weather History & Observations

Time (EDT) Temp. Heat Index Dew Point Humidity Pressure Visibility Wind Dir Wind Speed Gust Speed Precip Events Conditions
12:53 AM 75.0 °F - 73.0 °F 94% 30.04 in 9.0 mi NNE 3.5 mph - N/A   Partly Cloudy
1:53 AM 75.0 °F - 72.0 °F 90% 30.04 in 9.0 mi Calm Calm - N/A   Partly Cloudy
2:53 AM 73.9 °F - 73.0 °F 97% 30.04 in 8.0 mi Calm Calm - N/A   Clear
3:53 AM 72.0 °F - 71.1 °F 97% 30.02 in 7.0 mi Calm Calm - N/A   Clear
4:45 AM 71.1 °F - 71.1 °F 100% 30.05 in 1.8 mi Calm Calm - N/A   Clear
4:53 AM 71.1 °F - 71.1 °F 100% 30.03 in 1.2 mi Calm Calm - N/A   Clear
5:06 AM 72.0 °F - 71.1 °F 97% 30.05 in 3.0 mi NNW 3.5 mph - N/A   Clear
5:53 AM 70.0 °F - 70.0 °F 100% 30.05 in 4.0 mi Calm Calm - N/A   Clear
6:53 AM 71.1 °F - 70.0 °F 96% 30.04 in 6.0 mi NE 4.6 mph - N/A   Clear
7:53 AM 73.9 °F - 72.0 °F 93% 30.04 in 6.0 mi Calm Calm - N/A   Clear
8:53 AM 75.9 °F - 73.0 °F 91% 30.03 in 9.0 mi Calm Calm - N/A   Clear
9:53 AM 81.0 °F 86.2 °F 73.9 °F 79% 30.07 in 10.0 mi Calm Calm - N/A   Clear
10:53 AM 84.9 °F 94.1 °F 75.9 °F 74% 30.07 in 10.0 mi SSW 3.5 mph - N/A   Scattered Clouds
11:53 AM 88.0 °F 97.5 °F 75.0 °F 65% 30.05 in 10.0 mi SSW 5.8 mph - N/A   Clear
12:53 PM 89.1 °F 98.0 °F 73.9 °F 61% 30.03 in 10.0 mi SSW 8.1 mph - N/A   Scattered Clouds
1:53 PM 88.0 °F 98.5 °F 75.9 °F 67% 30.01 in 10.0 mi South 5.8 mph - N/A   Partly Cloudy
2:37 PM 86.0 °F 96.9 °F 77.0 °F 74% 30.03 in 10.0 mi West 5.8 mph - N/A Thunderstorm Thunderstorm
2:53 PM 88.0 °F 95.6 °F 73.0 °F 61% 30.01 in 10.0 mi Variable 3.5 mph - N/A Thunderstorm Thunderstorm
3:11 PM 87.1 °F 96.3 °F 75.0 °F 67% 30.02 in 10.0 mi NNE 12.7 mph - N/A Thunderstorm Thunderstorm
3:21 PM 87.1 °F 95.4 °F 73.9 °F 65% 30.01 in 10.0 mi NE 10.4 mph - N/A   Scattered Clouds
3:53 PM 82.9 °F 90.2 °F 75.0 °F 77% 30.00 in 10.0 mi NE 9.2 mph - N/A Thunderstorm Thunderstorm
4:06 PM 81.0 °F 85.2 °F 72.0 °F 74% 30.05 in 1.8 mi North - - N/A Thunderstorm Unknown
4:08 PM 80.1 °F 83.2 °F 70.0 °F 71% 30.05 in 3.0 mi West 13.8 mph - 0.00 in Rain , Thunderstorm Thunderstorms and Rain
4:18 PM 75.0 °F - 73.0 °F 94% 30.08 in 3.0 mi West 13.8 mph - 0.29 in Rain , Hail , Thunderstorm Thunderstorms and Rain
4:21 PM 75.0 °F - 73.0 °F 94% 30.07 in 2.0 mi West 13.8 mph - 0.33 in Rain , Hail , Thunderstorm Thunderstorms and Rain
4:29 PM 73.0 °F - 71.1 °F 93% 30.03 in 2.0 mi NNE 15.0 mph - 0.43 in Rain , Thunderstorm Thunderstorms and Rain
4:36 PM 73.0 °F - 70.0 °F 90% 30.04 in 3.0 mi NNE 10.4 mph - 0.46 in Rain , Thunderstorm Light Thunderstorms and Rain
4:53 PM 73.0 °F - 69.1 °F 87% 30.03 in 3.0 mi SE 5.8 mph - 0.46 in Rain , Thunderstorm Light Thunderstorms and Rain
5:00 PM 73.0 °F - 68.0 °F 84% 30.05 in 10.0 mi North 5.8 mph - 0.00 in   Scattered Clouds
5:18 PM 73.0 °F - 66.9 °F 81% 30.07 in 10.0 mi NW 17.3 mph 31.1 mph 0.00 in Thunderstorm Thunderstorm
5:53 PM 73.0 °F - 68.0 °F 84% 30.05 in 10.0 mi West 10.4 mph - 0.00 in Thunderstorm Thunderstorm
6:53 PM 75.0 °F - 69.1 °F 82% 30.00 in 10.0 mi NW 8.1 mph - 0.01 in   Clear
7:53 PM 73.0 °F - 69.1 °F 87% 29.97 in 10.0 mi SSE 8.1 mph - N/A   Clear
8:53 PM 71.1 °F - 69.1 °F 93% 29.97 in 10.0 mi Calm Calm - N/A   Clear
9:53 PM 70.0 °F - 68.0 °F 93% 29.96 in 10.0 mi Calm Calm - N/A   Clear
10:53 PM 69.1 °F - 68.0 °F 96% 29.98 in 10.0 mi Calm Calm - N/A   Clear
11:12 PM 68.0 °F - 68.0 °F 100% 29.99 in 1.5 mi Calm Calm - N/A   Clear
11:21 PM 69.1 °F - 68.0 °F 96% 30.00 in 0.5 mi WSW 3.5 mph - N/A Fog Fog
11:34 PM 68.0 °F - 66.9 °F 96% 30.01 in 2.0 mi Calm Calm - N/A   Clear
11:41 PM 68.0 °F - 68.0 °F 100% 30.01 in 10.0 mi Calm Calm - N/A   Clear
11:53 PM 69.1 °F - 68.0 °F 96% 30.01 in 10.0 mi Calm Calm - 0.00 in   Clear